STARLINK-33934, 64187

Orbit data source: Space-Track

STARLINK-33934, 64187 is a payload satellite owned by SpaceX/Seattle (US) in LEO that was launched on Wed, 28 May 2025 UTC via an FALCON 9 launch vehicle from the Air Force Eastern Test Range (AFETR). Payload-class satellites include a variety of spacecraft equipped with specific instruments for various scientific and technological missions. These include communications satellites like Starlink; space stations such as the ISS; scientific satellites like the Hubble; Earth observation satellites from companies like Planet Labs, Umbra, and HawkEye 360; GPS; miniature CubeSats for education and research; and military/defense satellites.

Loading next visibility...
Identifier
64187, 2025-113T
Orbit
LEO
Country
Flag of USUS
Related business
Manufacturer
SpaceX/Seattle
Mission
Operational Commercial Communications
Bus & Motor
STARLINK V2MO, Unknown motor
Mass
575 kg wet, ~530 kg dry
Launch date (UTC)
2025-05-28 (1 year ago)
Launch vehicle
FALCON 9
Launch site
Air Force Eastern Test Range (AFETR)
Object type
Payload
Rocket body
Debris
Shape & HBR
Box + 2 Pan, 17.7 m
Radar Cross Section
36.964 m², Large (>1 m²)

Expand to show TLE details & history
Last TLE update: 16 hours ago

TLE from 16 hours ago
0 STARLINK-33934
1 64187U 25113T   26171.16551122  .00023531  00000-0  80355-3 0  9996
2 64187  53.1610 335.2114 0001368  77.5346 282.5808 15.30222118 60715
Epoch: 2026-06-20T03:58Z
TLE epoch observation values (Epoch: 2026-06-20T03:58:20.169Z)
Latitude
-0°
Longitude
7.24331°
Altitude
475.845 km
Speed
7.629 km/s
True Right ascension
22h 20m 50s
True Declination
0° 00' 00"
Sunlit
Object was in partial shadow at epoch
Visualization orbit readout
Latitude
Unknown
Longitude
Unknown
Altitude
Unknown
Speed
Unknown
Apparent Right ascension
Unknown
Apparent Declination
Unknown
Sunlit
N/A
Visualization observer readout
Local Sidereal Time
07:15:21
Azimuth
Unknown
Elevation
Unknown
Doppler factor
Unknown
Orbital elements
Apogee altitude
476.343 km
Perigee altitude
474.468 km
Semi-major axis
6,853.542 km
Eccentricity
0.00014
Inclination
53.161°
RAAN
335.2114°
Arg. of periapsis
77.5346°
True anomaly
282.5655°
Mean anomaly
282.5808°
Eccentric anomaly
282.57315°
Mean motion
3.82534 °/min
Orbital period
94.11 mins
BSTAR
0.00080355
Loading maneuver chart data...
Computing Atmospheric mass density...
Loading historical data...
Loading historical data...
Loading historical data...
Loading historical data...
Loading historical data...
Loading historical data...
Loading historical data...

Documentation

Showing up to 5 results
|